TOURFACTS.DK  
Stats and Facts from Tour de France.

Tour de France 2019 starts in 323 days
  Riders   Stages   Teams   Summits   Yearly  


 
Search by year

After 2018 - Stage 21:
 15000 starters.
  5165 different riders.
  638 teams.
  2253 stages.
  456 restdays.
  442940.60 km.
  5684 abandonnees.


Top 3
GC
Geraint Thomas83:17:13
Tom Dumoulin83:19:04
Christopher Froome83:19:37
Climb
Julian Alaphilippe170 pt.
Warren Barguil91 pt.
Rafal Majka76 pt.
Sprint
Peter Sagan477 pt.
Alexander Kristoff246 pt.
Arnaud Démare203 pt.
Youth
Pierre-Roger Latou..83:39:26
Egan Bernal83:45:05
Guillaume Martin84:01:31
Facts from Tour de France 1949
  |   Stages.  |   Stage winners.  |   Days in yellow  |   Average speed.  |   Route.  |   Teams.  |   All riders.  |   Rookies.  |  

  |   Withdrawls.  |   GC.  |   Polka  |   Green  |   White  |   Summits. (In tour)  |   Miscellaneous.  |  

Stage 8 on 08 - 07 - 1949
         Owning:    Jacques Marinelli    
Pick a stage:  1 2 3 4 5 6 7 8 9 10 11 12 13 14 15 16 17 18 19 20 21
  La RochelleBordeaux | Dist: 262.00 km.

Average speed for all riders in stage:  34,902 km./hr.
    Place:Name:Team:Time:Km/h:
1
FRAGuy LapébieFRAFrance07:27:22  +  00:00:00=35,139 
2
BELRik Van SteenbergenBELBelgium07:27:22  +  00:00:00=35,139 
3
ITAGiuseppe TaccaFRAIle De France07:27:22  +  00:00:00=35,139 
44 FRAMaurice DiotFRAFrance07:27:22  +  00:00:00=35,139 
55 FRARobert DesbatsFRACenter-South West07:27:22  +  00:00:00=35,139 
66 FRALouis CaputFRAIle De France07:27:22  +  00:00:00=35,139 
77 BELRaymond ImpanisBELBelgium07:27:22  +  00:00:00=35,139 
88 ITAArmando PeverelliITACadetti Italiens07:27:22  +  00:00:00=35,139 
99 FRAJean BlancFRACenter-South West07:27:22  +  00:00:00=35,139 
1010 BELFlorent MathieuBELBelgium07:28:53  +  00:01:31=35,020 
1111 FRAJean-Marie GoasmatFRAWest-North07:28:53  +  00:01:31=35,020 
1212 ITALuciano PezziITAItaly07:28:53  +  00:01:31=35,020 
1313 GERCésar MarcelakFRAWest-North07:28:53  +  00:01:31=35,020 
1414 FRARaphaël GeminianiFRAFrance07:28:53  +  00:01:31=35,020 
1515 ITASylvio PedroniITACadetti Italiens07:28:53  +  00:01:31=35,020 
1616 FRAJacques MarinelliFRAIle De France07:29:28  +  00:02:06=34,975 
1717 FRARaymond LucasFRAIle De France07:29:28  +  00:02:06=34,975 
1818 ITAVittorio MagniITACadetti Italiens07:29:28  +  00:02:06=34,975 
1919 ITAAlfredo MartiniITACadetti Italiens07:29:28  +  00:02:06=34,975 
2020 BELMarcel De MulderBELAiglons Belges07:29:28  +  00:02:06=34,975 
2121 BELMarcel DupontBELAiglons Belges07:29:28  +  00:02:06=34,975 
2222 BELMarcel HendrickxBELAiglons Belges07:29:28  +  00:02:06=34,975 
2323 BELJoseph VerhaertBELAiglons Belges07:29:28  +  00:02:06=34,975 
2424 FRAAndré BruléFRAIle De France07:29:28  +  00:02:06=34,975 
2525 FRAEmile IdéeFRAIle De France07:29:28  +  00:02:06=34,975 
2626 ITAGiuseppe AusendaITACadetti Italiens07:29:28  +  00:02:06=34,975 
2727 FRAPierre CoganFRAWest-North07:29:28  +  00:02:06=34,975 
2828 FRARoger Le NizerhyFRAWest-North07:29:28  +  00:02:06=34,975 
2929 FRAJean ReyFRASouth-East07:29:28  +  00:02:06=34,975 
3030 FRAGeorges MartinFRASouth-East07:29:28  +  00:02:06=34,975 
3131 ITANello LaurediFRASouth-East07:29:28  +  00:02:06=34,975 
3232 FRAPaul GiguetFRASouth-East07:29:28  +  00:02:06=34,975 
3333 ITAAdolphe DeleddaFRASouth-East07:29:28  +  00:02:06=34,975 
3434 ITAFermo CamelliniFRASouth-East07:29:28  +  00:02:06=34,975 
3535 SUIPierre BrambillaFRASouth-East07:29:28  +  00:02:06=34,975 
3636 FRAGeorges RamouluxFRACenter-South West07:29:28  +  00:02:06=34,975 
3737 FRAPaul PineauFRACenter-South West07:29:28  +  00:02:06=34,975 
3838 FRAHenri MassalFRACenter-South West07:29:28  +  00:02:06=34,975 
3939 FRARoger LevequeFRACenter-South West07:29:28  +  00:02:06=34,975 
4040 MARCustodio Dos ReisFRACenter-South West07:29:28  +  00:02:06=34,975 
4141 FRAAlbert DolhatsFRACenter-South West07:29:28  +  00:02:06=34,975 
4242 FRAJean RobicFRAWest-North07:29:28  +  00:02:06=34,975 
4343 ITAÉdouard FachleitnerFRASouth-East07:29:28  +  00:02:06=34,975 
4444 FRAAndre MahéFRAWest-North07:29:28  +  00:02:06=34,975 
4545 FRAAntonin RollandFRASouth-East07:29:28  +  00:02:06=34,975 
4646 ITAGino BartaliITAItaly07:29:28  +  00:02:06=34,975 
4747 FRARobert ChapatteFRAFrance07:29:28  +  00:02:06=34,975 
4848 FRALouison BobetFRAFrance07:29:28  +  00:02:06=34,975 
4949 BELEdward Van DijckBELBelgium07:29:28  +  00:02:06=34,975 
5050 BELBriek SchotteBELBelgium07:29:28  +  00:02:06=34,975 
5151 BELStan OckersBELBelgium07:29:28  +  00:02:06=34,975 
5252 BELRoger LambrechtBELBelgium07:29:28  +  00:02:06=34,975 
5353 ITAGino SciardisITAItaly07:29:28  +  00:02:06=34,975 
5454 ITAMario RicciITAItaly07:29:28  +  00:02:06=34,975 
5555 ITAVincenzo RosselloITAItaly07:29:28  +  00:02:06=34,975 
5656 ITABruno PasquiniITAItaly07:29:28  +  00:02:06=34,975 
5757 ITAEttore MilanoITAItaly07:29:28  +  00:02:06=34,975 
5858 ITAGuido De SantiITAItaly07:29:28  +  00:02:06=34,975 
5959 ITAGiovanni CorrieriITAItaly07:29:28  +  00:02:06=34,975 
6060 ITAFausto CoppiITAItaly07:29:28  +  00:02:06=34,975 
6161 ITAAngelo BrignoleITAItaly07:29:28  +  00:02:06=34,975 
6262 ITASerifano BiagioniITAItaly07:29:28  +  00:02:06=34,975 
6363 FRALouis DeprezFRAFrance07:29:28  +  00:02:06=34,975 
6464 FRABernard GauthierFRAFrance07:29:28  +  00:02:06=34,975 
6565 NEDWim De RuyterNLDHolland07:29:28  +  00:02:06=34,975 
6666 BELJacques GeusBELAiglons Belges07:29:28  +  00:02:06=34,975 
6767 LUXJean KirchenLUXLuxembourg07:29:28  +  00:02:06=34,975 
6868 LUXJean GoldschmitLUXLuxembourg07:29:28  +  00:02:06=34,975 
6969 LUXMarcel ErnzerLUXLuxembourg07:29:28  +  00:02:06=34,975 
7070 LUXJean DiederichLUXLuxembourg07:29:28  +  00:02:06=34,975 
7171 SUIFerdi KüblerCHESwitzerland07:29:28  +  00:02:06=34,975 
7272 SUIRoger AeschlimannCHESwitzerland07:29:28  +  00:02:06=34,975 
7373 FRARené ViettoFRAFrance07:29:28  +  00:02:06=34,975 
7474 FRAJean-Apotre LazaridesFRAFrance07:29:28  +  00:02:06=34,975 
7575 SUIGeorges AeschlimannCHESwitzerland07:29:28  +  00:02:06=34,975 
7676 FRALucien LazaridesFRAFrance07:29:28  +  00:02:06=34,975 
7777 FRALucien TeisseireFRAFrance07:29:28  +  00:02:06=34,975 
7878 FRAEdouard MullerFRAIle De France07:31:39  +  00:04:17=34,806 
7979 FRACamille DanguillaumeFRAFrance07:38:05  +  00:10:43=34,317 
8080 SUIGottfried WeilenmannCHESwitzerland07:39:37  +  00:12:15=34,202 
8181 BELDésiré KeteleerBELBelgium07:43:08  +  00:15:46=33,943 
8282 NEDHenk de HoogNLDHolland07:43:08  +  00:15:46=33,943 
8383 NEDFrans PauwelsNLDHolland07:43:08  +  00:15:46=33,943 
8484 BELMarcel KintBELBelgium07:43:08  +  00:15:46=33,943 
8585 BELRoger GhyselinckBELBelgium07:43:08  +  00:15:46=33,943 
8686 BELNorbert CallensBELBelgium07:43:08  +  00:15:46=33,943 

Withdrawls: 2
 
Rider
Team
Reason
89  FRAAnge Le StratFRAWest-NorthDid not finish
102  FRAMarcel DussaultFRACenter-South WestDid not finish
Todays birthdays.

1874  Achille Colas
1895  Lucien Meunier
1902  Lazare Venot
1915  Albert Gijsen
1924  Marcel Zelasco
1930  Juan Campillo
1931  Jean-Claude Skerl
1934  Jean Selic
1935  Arnaldo Pambianco
1955  Mario Beccia
1956  Daniel Willems
1957  Dominique Sanders
1959  Marc Sergeant
1960  Éric Caritoux
1963  Jelle Nijdam
1971  Arnaud Prétot
1980  Piet Rooijakkers